Overview Statistics Trail Chart Weather Telemetry Raw packets
 

This is the latest recevied weather packets stored in our database for station/object W6MAF. If no packets are shown the sender has not sent any weather packets the latest 10 day(s).

<< 69 70 71 72 73 74 75 >>
Time Temp. Humidity Pressure Rain* Wind** Luminosity Snow
1788170103 18.33° C 44% - 0 mm 5.36 m/s, 173° - -
1788169805 18.33° C 43% - 0 mm 6.26 m/s, 203° - -
1788169507 18.33° C 42% - 0 mm 5.81 m/s, 217° - -
1788169209 18.33° C 41% - 0 mm 6.26 m/s, 225° - -
1788168911 18.33° C 41% - 0 mm 5.81 m/s, 195° - -
1788168610 18.33° C 42% - 0 mm 5.81 m/s, 207° - -
1788168313 18.33° C 42% - 0 mm 5.81 m/s, 195° - -
1788168015 18.33° C 43% - 0 mm 5.81 m/s, 214° - -
1788167717 18.33° C 44% - 0 mm 5.81 m/s, 204° - -
1788167420 18.33° C 44% - 0 mm 4.47 m/s, 214° - -
1788167122 18.33° C 45% - 0 mm 5.36 m/s, 222° - -
1788166821 17.78° C 46% - 0 mm 5.81 m/s, 204° - -
1788166523 17.78° C 48% - 0 mm 5.81 m/s, 170° - -
1788166226 17.78° C 51% - 0 mm 5.81 m/s, 224° - -
1788165928 17.78° C 54% - 0 mm 4.92 m/s, 228° - -
1788165630 17.78° C 56% - 0 mm 5.36 m/s, 217° - -
1788165333 17.78° C 59% - 0 mm 6.26 m/s, 200° - -
1788165032 17.78° C 63% - 0 mm 5.36 m/s, 228° - -
1788164436 17.78° C 68% - 0 mm 4.92 m/s, 179° - -
1788164138 17.78° C 69% - 0 mm 5.81 m/s, 201° - -
1788163841 17.78° C 69% - 0 mm 4.92 m/s, 215° - -
1788163543 17.78° C 69% - 0 mm 5.36 m/s, 198° - -
1788163242 17.78° C 69% - 0 mm 4.02 m/s, 214° - -
1788162945 17.78° C 69% - 0 mm 4.47 m/s, 228° - -
1788162647 17.78° C 70% - 0 mm 5.36 m/s, 232° - -

* Rain latest hour (hover to see other rain measurements)
** Current wind speed in m/s (hover to see current wind gust speed)